This demonstration page uses our WeatherBlox Daily Observations layout. Learn more.

Left ArrowRight Arrow

30.21309, -93.2044

Hourly Observations for June 4, 2019

Temp ( °F °C ) Dew Point ( °F °C ) Humidity (%) Winds ( mph kmh ) Pressure ( in mb ) Visibility ( mi km ) Precip ( " mm )
12:15 am 00:15 Partly Cloudy 79 26.2 76 24.5 90 90 ESE 9 15 29.99 1016 10 16 0.00 0.00
12:35 am 00:35 Clear 79 26 76 24.5 91 91 E 8 13 29.99 1016 10 16 0.00 0.00
12:55 am 00:55 Clear 80 26.5 76 24.4 88 88 E 9 15 29.99 1016 10 16 0.00 0.00
1:15 am 01:15 Clear 79 26.1 76 24.4 90 90 E 9 15 29.99 1016 10 16 0.00 0.00
1:35 am 01:35 Clear 79 26.1 76 24.6 91 91 E 9 15 29.99 1016 10 16 0.00 0.00
1:55 am 01:55 Clear 80 26.5 76 24.5 89 89 E 9 15 29.98 1015 10 16 0.00 0.00
2:15 am 02:15 Clear 79 26.3 76 24.4 89 89 E 8 13 29.98 1015 10 16 0.00 0.00
2:55 am 02:55 Clear 78 25.3 76 24.2 94 94 NNE 9 15 29.98 1015 10 16 0.00 0.00
3:15 am 03:15 Clear 78 25.5 75 24.1 92 92 Calm 29.97 1015 10 16 0.00 0.00
3:55 am 03:55 Partly Cloudy 76 24.5 75 24 97 97 Calm 29.97 1015 7 11 0.00 0.00
4:15 am 04:15 Mostly Cloudy 76 24.7 75 24.1 96 96 ESE 3 6 29.96 1015 7 11 0.00 0.00
4:35 am 04:35 Mostly Cloudy 76 24.7 75 24.1 96 96 Calm 29.96 1015 7 11 0.00 0.00
4:55 am 04:55 Partly Cloudy 77 25 76 24.3 96 96 Calm 29.96 1015 7 11 0.00 0.00
5:15 am 05:15 Clear 77 24.8 75 24.1 96 96 Calm 29.95 1014 7 11 0.00 0.00
5:35 am 05:35 Partly Cloudy 76 24.6 75 24.1 97 97 Calm 29.96 1015 7 11 0.00 0.00
6:00 am 06:00 Mostly Clear 75 24 75 24 100 100 Calm 29.96 1015 10 16 0.00 0.00
6:47 am 06:47 Mostly Sunny 75 24 75 24 100 100 Calm 29.96 1015 7 11 0.00 0.00
7:55 am 07:55 Mostly Sunny 82 28 77 25 84 84 E 7 11 29.98 1015 7 11 0.00 0.00
8:55 am 08:55 Mostly Cloudy 84 29 75 24 74 74 S 9 15 30.00 1016 7 11 0.00 0.00
9:50 am 09:50 Mostly Cloudy 86 30 77 25 75 75 SSE 8 13 30.01 1016 7 11 0.00 0.00
10:55 am 10:55 Mostly Cloudy 88 31 73 23 62 62 SSE 8 13 30.01 1016 10 16 0.00 0.00
11:55 am 11:55 Mostly Cloudy 90 32 73 23 59 59 SSE 8 13 30.00 1016 10 16 0.00 0.00
12:50 pm 12:50 Mostly Cloudy 90 32 75 24 63 63 S 12 19 29.99 1016 10 16 0.00 0.00
1:55 pm 13:55 Mostly Cloudy 90 32 72 22 55 55 SSE 12 19 29.97 1015 10 16 0.00 0.00
2:55 pm 14:55 Partly Cloudy 91 33 72 22 52 52 S 12 19 29.97 1015 10 16 0.00 0.00
4:50 pm 16:50 Partly Cloudy 90 32 73 23 59 59 S 13 20 29.95 1014 10 16 0.00 0.00
5:50 pm 17:50 Partly Cloudy 86 30 75 24 70 70 S 7 11 29.93 1014 10 16 0.00 0.00
6:55 pm 18:55 Partly Cloudy 86 30 77 25 75 75 S 8 13 29.93 1014 10 16 0.00 0.00
7:55 pm 19:55 Mostly Cloudy 79 26 77 25 94 94 SW 10 17 29.96 1015 10 16 0.00 0.00
8:50 pm 20:50 Mostly Clear 79 26 77 25 94 94 SSW 9 15 29.96 1015 10 16 0.00 0.00
9:50 pm 21:50 Partly Cloudy 77 25 75 24 94 94 SSE 7 11 29.95 1014 10 16 0.00 0.00
10:15 pm 22:15 Clear 78 25.6 75 24 91 91 SSE 7 11 29.95 1014 10 16 0.00 0.00
10:35 pm 22:35 Clear 78 25.5 75 24.1 92 92 SE 6 9 29.95 1014 10 16 0.00 0.00
10:55 pm 22:55 Clear 77 25.2 76 24.2 94 94 SE 3 6 29.95 1014 10 16 0.00 0.00
11:15 pm 23:15 Clear 77 25 76 24.2 95 95 SE 5 7 29.95 1014 10 16 0.01 0.25
11:35 pm 23:35 Clear 77 24.9 75 24 95 95 Calm 29.96 1015 10 16 0.01 0.25
11:55 pm 23:55 Clear 77 25.1 76 24.3 95 95 Calm 29.96 1015 10 16 0.01 0.25

Powered by AerisWeather